STARLINK-1145 (45066 NORAD) Tracking and Keplerian Element Data

This shows tracking and keplerian element data for the satellite.

Feedback or suggestion? Click here.




ElementValue
Catalog45066
NameSTARLINK-1145
Epoch Orbit325
Epoch Day47.91667824
Epoch Year2020
RAAN144.3529
Inclination52.9965
Eccentricity0.0001475
Argument of Perigee50.9796
Mean Anonmoly212.3919
Mean Motion15.73198158
Decay Rate0.00210126
L11 45066U 20006Y 20047.91667824 .00210126 00000-0 14642-2 0 9996
L22 45066 52.9965 144.3529 0001475 50.9796 212.3919 15.73198158 3255

Live tracking and technical data element details for STARLINK-1145 (NORAD 45066). STARLINK-1145 can be tracked NOW for your location showing map with azimuth and elevation plus other details from your city location.

Track the satellite on the map from your city or location and see movement details for azimuth, elevation, latitude, longitude, range, height, and movement on the map or in text.







IsCatalogInMostPopularTable: catalog: 45066, numindb: -1

Insert: records affected: 1


GetName: 45066 STARLINK-1145

Hit Count: inserted at: Tue, 18 Feb 2020 01:47:06 GMT